Westerly, RI

1:41 PM EST on November 22, 2017 (GMT -0500)
Westerly State

Weather History for KWST - April, 2013

Change the Weather History Date:

Sunday, April 21, 2013

  Actual Average (KGON) Record (KGON)
Temperature  
Mean Temperature 43 °F -  
Max Temperature 53 °F 58 °F 74 °F (1987)
Min Temperature 35 °F 39 °F 26 °F (1979)
Degree Days  
Heating Degree Days 22    
Moisture  
Dew Point 25 °F    
Average Humidity 51    
Maximum Humidity 89    
Minimum Humidity 31    
Precipitation  
Precipitation 0.00 in - - ()
Sea Level Pressure  
Sea Level Pressure 30.52 in    
Wind  
Wind Speed 10 mph (NNW)    
Max Wind Speed 14 mph    
Max Gust Speed 24 mph    
Visibility 10 miles    
Events      
Averages and records for this station are not official NWS values.
T = Trace of Precipitation, MM = Missing Value Source: NWS Daily Summary

Daily Weather History Graph

Daily Weather History Graph

Search for Another Location

Airport or City:

Trip Planner

Search our weather history database for the weather conditions in past years. The results will help you decide how hot, cold, wet, or windy it might be!

Date:

Astronomy

Apr. 21, 2013 Rise Set
Actual Time 5:58 AM EDT 7:34 PM EDT
Civil Twilight 5:29 AM EDT 8:03 PM EDT
Nautical Twilight 4:53 AM EDT 8:38 PM EDT
Astronomical Twilight 4:16 AM EDT 9:16 PM EDT
Moon 3:13 PM EDT (4/21) 3:21 AM EDT (4/21)
Length of Visible Light 14h 34m
Length of Day
13h 36m
Waxing Gibbous, 79% of the Moon is Illuminated
Apr 21
Waxing Gibbous
Apr 25
Full
May 2
Last Quarter
May 9
New
May 18
First Quarter

Hourly Weather History & Observations

Time (EDT) Temp. Windchill Dew Point Humidity Pressure Visibility Wind Dir Wind Speed Gust Speed Precip Events Conditions
12:53 AM 44.1 °F 37.4 °F 25.0 °F 47% 30.27 in 10.0 mi NNW 13.8 mph 24.2 mph N/A   Clear
1:53 AM 41.0 °F 34.3 °F 21.9 °F 47% 30.31 in 10.0 mi NNW 11.5 mph 23.0 mph N/A   Clear
2:53 AM 39.0 °F 31.0 °F 19.9 °F 46% 30.34 in 10.0 mi NNW 13.8 mph 20.7 mph N/A   Clear
3:53 AM 37.0 °F 31.0 °F 19.0 °F 48% 30.36 in 10.0 mi NNW 8.1 mph 19.6 mph N/A   Clear
4:53 AM 36.0 °F 29.0 °F 19.0 °F 50% 30.39 in 10.0 mi NNW 9.2 mph - N/A   Clear
5:53 AM 35.1 °F 29.3 °F 19.0 °F 52% 30.43 in 10.0 mi NNW 6.9 mph - N/A   Clear
6:53 AM 36.0 °F 33.3 °F 19.9 °F 52% 30.47 in 10.0 mi NNW 3.5 mph - N/A   Clear
7:53 AM 39.0 °F 32.8 °F 19.9 °F 46% 30.51 in 10.0 mi North 9.2 mph - N/A   Clear
8:53 AM 41.0 °F 33.9 °F 21.0 °F 45% 30.51 in 10.0 mi North 12.7 mph - N/A   Clear
9:53 AM 43.0 °F 38.2 °F 21.0 °F 42% 30.52 in 10.0 mi NW 8.1 mph 17.3 mph N/A   Clear
10:53 AM 46.0 °F 41.4 °F 21.9 °F 39% 30.54 in 10.0 mi North 9.2 mph - N/A   Clear
11:53 AM 48.0 °F - 19.9 °F 33% 30.55 in 10.0 mi NNE 9.2 mph - N/A   Clear
12:53 PM 51.1 °F - 21.0 °F 31% 30.54 in 10.0 mi North 11.5 mph 17.3 mph N/A   Clear
1:53 PM 48.9 °F - 30.0 °F 48% 30.54 in 10.0 mi SSE 12.7 mph - N/A   Clear
2:53 PM 46.9 °F - 28.0 °F 48% 30.55 in 10.0 mi SE 12.7 mph - N/A   Clear
3:53 PM 46.9 °F - 23.0 °F 39% 30.55 in 10.0 mi SSW 11.5 mph - N/A   Clear
4:53 PM 48.0 °F - 24.1 °F 39% 30.55 in 10.0 mi SW 8.1 mph - N/A   Clear
5:53 PM 46.0 °F 41.4 °F 30.0 °F 54% 30.57 in 10.0 mi South 9.2 mph - N/A   Clear
6:53 PM 44.1 °F 39.5 °F 30.0 °F 58% 30.60 in 10.0 mi South 8.1 mph - N/A   Clear
7:53 PM 42.1 °F 37.1 °F 28.9 °F 60% 30.63 in 10.0 mi SSE 8.1 mph - N/A   Clear
8:53 PM 42.1 °F 39.2 °F 30.0 °F 62% 30.65 in 10.0 mi SE 4.6 mph - N/A   Clear
9:53 PM 41.0 °F - 30.9 °F 67% 30.66 in 10.0 mi Calm Calm - N/A   Clear
10:53 PM 37.0 °F - 32.0 °F 82% 30.68 in 10.0 mi Calm Calm - N/A   Clear
11:53 PM 36.0 °F - 33.1 °F 89% 30.67 in 10.0 mi Calm Calm - N/A   Clear